sat.trackr.live / text

‹ back to catalog

SAUDISAT 5A

NORAD 43831 · 2018-102A

PAYLOAD ACTIVE UNKNOWN

§ Identity

Operator
Country
SAUD
Launch date
2018-12-07
Launch site
JSC
Launch vehicle
Mass (kg)
RCS (m²)

Purposes: earth_obs

External: N2YO · Heavens-Above · Gunter

§ Orbital elements

Epoch: 2026-09-14T22:06:20.731392Z

Period
94.19 min
Inclination
97.2971°
Eccentricity
0.0009785
Mean motion
15.28827643 rev/d
Perigee alt
472.6 km
Apogee alt
486.0 km
Semi-major
6,857.5 km
B*
1.7592e-4
RAAN
317.7752°
Arg perigee
165.7156°
Mean anomaly
194.4363°
Rev number
42,938

§ Raw data

SAUDISAT 5A1 43831U 18102A   26257.92107328  .00004860  00000+0  17592-3 0  99992 43831  97.2971 317.7752 0009785 165.7156 194.4363 15.28827643429380

JSON: /api/v1/satellites/43831 · /tle

For live sub-satellite position, see the globe view (requires WebGL).

§ Visibility from observer

Set your observer location to see the next 7 days of passes ≥ 10°. The values pass through the URL so the page stays shareable.

No JS? Fill the form by hand. The geolocation button needs JavaScript.

§ Radio — SatNOGS DB

ModeDescriptionDownlinkUplink
FM 401.35 401.350 MHz
FM 401.85 401.850 MHz

2 transmitters · refreshed weekly from db.satnogs.org